Grand Prairie, TX

1:49 AM CDT on June 28, 2017 (GMT -0500)
Grand Prairie Municipal

Weather History for KGPM - February, 2014

Change the Weather History Date:

Monday, February 24, 2014

  Actual Average (KRBD) Record (KRBD)
Temperature  
Mean Temperature 50 °F -  
Max Temperature 57 °F 57 °F 82 °F (2011)
Min Temperature 42 °F 40 °F 21 °F (2003)
Degree Days  
Heating Degree Days 16    
Moisture  
Dew Point 39 °F    
Average Humidity 69    
Maximum Humidity 77    
Minimum Humidity 59    
Precipitation  
Precipitation 0.00 in - - ()
Sea Level Pressure  
Sea Level Pressure 30.11 in    
Wind  
Wind Speed 6 mph (NE)    
Max Wind Speed 9 mph    
Max Gust Speed -    
Visibility 10 miles    
Events      
Averages and records for this station are not official NWS values.
T = Trace of Precipitation, MM = Missing Value Source: NWS Daily Summary

Daily Weather History Graph

Daily Weather History Graph

Search for Another Location

Airport or City:

Trip Planner

Search our weather history database for the weather conditions in past years. The results will help you decide how hot, cold, wet, or windy it might be!

Date:

Astronomy

Feb. 24, 2014 Rise Set
Actual Time 7:01 AM CST 6:21 PM CST
Civil Twilight 6:36 AM CST 6:46 PM CST
Nautical Twilight 6:08 AM CST 7:15 PM CST
Astronomical Twilight 5:39 AM CST 7:43 PM CST
Moon 2:51 AM CST (2/24) 1:33 PM CST (2/24)
Length of Visible Light 12h 09m
Length of Day
11h 19m
Waning Crescent, 28% of the Moon is Illuminated
Feb 24
Waning Crescent
Mar 1
New
Mar 8
First Quarter
Mar 16
Full
Mar 23
Last Quarter

Hourly Weather History & Observations

Time (CST) Temp. Windchill Dew Point Humidity Pressure Visibility Wind Dir Wind Speed Gust Speed Precip Events Conditions
12:15 AM 46.4 °F 42.9 °F 35.6 °F 66% 30.14 in 10.0 mi NNE 6.9 mph - N/A   Clear
12:35 AM 46.4 °F 42.4 °F 35.6 °F 66% 30.14 in 10.0 mi North 8.1 mph - N/A   Clear
12:55 AM 46.4 °F 41.9 °F 35.6 °F 66% 30.14 in 10.0 mi North 9.2 mph - N/A   Clear
1:15 AM 44.6 °F 40.7 °F 35.6 °F 71% 30.13 in 10.0 mi NNE 6.9 mph - N/A   Clear
1:35 AM 46.4 °F 42.9 °F 35.6 °F 66% 30.13 in 10.0 mi NNE 6.9 mph - N/A   Clear
1:55 AM 46.4 °F 43.5 °F 35.6 °F 66% 30.12 in 10.0 mi NNE 5.8 mph - N/A   Clear
2:15 AM 44.6 °F 42.2 °F 35.6 °F 71% 30.12 in 10.0 mi NE 4.6 mph - N/A   Clear
2:35 AM 44.6 °F 42.2 °F 35.6 °F 71% 30.11 in 10.0 mi NNE 4.6 mph - N/A   Clear
2:55 AM 44.6 °F 43.1 °F 35.6 °F 71% 30.12 in 10.0 mi NNE 3.5 mph - N/A   Clear
3:15 AM 44.6 °F 43.1 °F 35.6 °F 71% 30.11 in 10.0 mi NNE 3.5 mph - N/A   Clear
3:35 AM 42.8 °F 40.1 °F 35.6 °F 76% 30.11 in 10.0 mi NNE 4.6 mph - N/A   Clear
3:55 AM 42.8 °F 40.1 °F 35.6 °F 76% 30.11 in 10.0 mi NNE 4.6 mph - N/A   Clear
4:15 AM 42.8 °F 40.1 °F 35.6 °F 76% 30.11 in 10.0 mi North 4.6 mph - N/A   Clear
4:35 AM 42.8 °F 38.6 °F 35.6 °F 76% 30.11 in 10.0 mi North 6.9 mph - N/A   Clear
4:55 AM 42.8 °F 39.3 °F 35.6 °F 76% 30.12 in 10.0 mi North 5.8 mph - N/A   Clear
5:15 AM 42.8 °F 38.0 °F 35.6 °F 76% 30.12 in 10.0 mi North 8.1 mph - N/A   Clear
5:35 AM 42.8 °F 39.3 °F 35.6 °F 76% 30.13 in 10.0 mi North 5.8 mph - N/A   Scattered Clouds
5:55 AM 42.8 °F 38.6 °F 35.6 °F 76% 30.13 in 10.0 mi North 6.9 mph - N/A   Scattered Clouds
7:50 AM 46.4 °F 44.3 °F 37.4 °F 71% 30.16 in 10.0 mi NNE 4.6 mph - N/A   Overcast
8:50 AM 48.2 °F - 37.4 °F 66% 30.19 in 10.0 mi ENE 6.9 mph - N/A   Overcast
9:50 AM 48.2 °F - 37.4 °F 66% 30.19 in 10.0 mi NE 9.2 mph - N/A   Overcast
10:50 AM 48.2 °F - 39.2 °F 71% 30.20 in 10.0 mi ENE 6.9 mph - N/A   Overcast
11:50 AM 50.0 °F - 39.2 °F 66% 30.19 in 10.0 mi Calm Calm - N/A   Overcast
12:50 PM 51.8 °F - 39.2 °F 62% 30.14 in 10.0 mi Calm Calm - N/A   Overcast
1:50 PM 53.6 °F - 42.8 °F 67% 30.11 in 10.0 mi North 4.6 mph - N/A   Overcast
2:50 PM 55.4 °F - 42.8 °F 63% 30.09 in 10.0 mi Calm Calm - N/A   Overcast
3:50 PM 57.2 °F - 42.8 °F 59% 30.07 in 10.0 mi Calm Calm - N/A   Overcast
4:50 PM 57.2 °F - 42.8 °F 59% 30.06 in 10.0 mi NE 9.2 mph - N/A   Overcast
5:50 PM 55.4 °F - 42.8 °F 63% 30.07 in 10.0 mi NNE 6.9 mph - N/A   Overcast
8:15 PM 55.4 °F - 42.8 °F 63% 30.09 in 10.0 mi NNE 6.9 mph - N/A   Overcast
8:35 PM 55.4 °F - 42.8 °F 63% 30.07 in 10.0 mi ENE 5.8 mph - N/A   Mostly Cloudy
8:55 PM 55.4 °F - 42.8 °F 63% 30.08 in 10.0 mi NE 5.8 mph - N/A   Overcast
9:15 PM 55.4 °F - 42.8 °F 63% 30.08 in 10.0 mi East 6.9 mph - N/A   Overcast
9:35 PM 55.4 °F - 42.8 °F 63% 30.08 in 10.0 mi NE 5.8 mph - N/A   Overcast
9:55 PM 55.4 °F - 42.8 °F 63% 30.08 in 10.0 mi East 8.1 mph - N/A   Overcast
10:15 PM 53.6 °F - 44.6 °F 72% 30.08 in 7.0 mi East 6.9 mph - N/A   Overcast
10:35 PM 53.6 °F - 46.4 °F 77% 30.08 in 7.0 mi East 6.9 mph - N/A   Overcast
10:55 PM 53.6 °F - 46.4 °F 77% 30.08 in 7.0 mi ESE 4.6 mph - N/A   Overcast
11:15 PM 53.6 °F - 46.4 °F 77% 30.08 in 7.0 mi Calm Calm - N/A   Overcast
11:35 PM 53.6 °F - 46.4 °F 77% 30.07 in 7.0 mi Calm Calm - N/A   Overcast
11:55 PM 53.6 °F - 46.4 °F 77% 30.07 in 7.0 mi NE 3.5 mph - N/A   Overcast